Change the Weather History Date:

Wednesday, November 6, 2013

  Actual Average Record
Temperature  
Mean Temperature 44 °F 44 °F  
Max Temperature 58 °F 54 °F 74 °F (1980)
Min Temperature 29 °F 34 °F 14 °F (1991)
Degree Days  
Heating Degree Days 21 21  
Month to date heating degree days 109 118  
Since 1 July heating degree days 597 642  
Cooling Degree Days 0 0  
Month to date cooling degree days 0 0  
Year to date cooling degree days 1014 938  
Moisture  
Dew Point 34 °F    
Average Humidity 71    
Maximum Humidity 93    
Minimum Humidity 49    
Precipitation  
Precipitation 0.27 in 0.09 in 0.81 in (2000)
Month to date precipitation 0.77 0.55  
Year to date precipitation 34.87 33.87  
Sea Level Pressure  
Sea Level Pressure 30.07 in    
Wind  
Wind Speed 14 mph (NW)    
Max Wind Speed 25 mph    
Max Gust Speed 31 mph    
Visibility 9 miles    
Events Rain    
T = Trace of Precipitation, MM = Missing Value Source: NWS Daily Summary

Daily Weather History Graph

Daily Weather History Graph

Search for Another Location

Airport or City:

Trip Planner

Search our weather history database for the weather conditions in past years. The results will help you decide how hot, cold, wet, or windy it might be!

Date:

Astronomy

Nov. 06, 2013 Rise Set
Actual Time 6:47 AM CST 4:59 PM CST
Civil Twilight 6:18 AM CST 5:28 PM CST
Nautical Twilight 5:45 AM CST 6:00 PM CST
Astronomical Twilight 5:13 AM CST 6:33 PM CST
Moon 10:03 AM CST (11/6) 8:03 PM CST (11/6)
Length of Visible Light 11h 10m
Length of Day
10h 12m
Waxing Crescent, 14% of the Moon is Illuminated
Nov 6
Waxing Crescent
Nov 9
First Quarter
Nov 17
Full
Nov 25
Last Quarter
Dec 2
New

Hourly Weather History & Observations

Time (CST) Temp. Windchill Dew Point Humidity Pressure Visibility Wind Dir Wind Speed Gust Speed Precip Events Conditions
12:53 AM 57.9 °F - 57.0 °F 97% 29.80 in 3.0 mi South 12.7 mph - 0.04 in Rain Light Rain
1:53 AM 57.9 °F - 57.0 °F 97% 29.79 in 10.0 mi SSW 11.5 mph - 0.07 in   Overcast
2:17 AM 51.8 °F - 48.2 °F 88% 29.82 in 2.5 mi NW 19.6 mph 26.5 mph 0.05 in Rain Light Rain
2:24 AM 50.0 °F - 48.2 °F 94% 29.83 in 4.0 mi WNW 17.3 mph 25.3 mph 0.07 in Rain Light Rain
2:53 AM 45.0 °F 37.1 °F 43.0 °F 93% 29.86 in 9.0 mi WNW 19.6 mph 24.2 mph 0.12 in Rain Light Rain
3:53 AM 42.1 °F 34.5 °F 39.9 °F 92% 29.89 in 7.0 mi WNW 15.0 mph 27.6 mph 0.04 in Rain Light Rain
4:53 AM 39.0 °F 28.5 °F 37.0 °F 93% 29.92 in 10.0 mi NW 23.0 mph 28.8 mph 0.00 in   Overcast
5:53 AM 37.9 °F 28.9 °F 36.0 °F 93% 29.94 in 10.0 mi NNW 16.1 mph 27.6 mph N/A   Overcast
6:33 AM 37.4 °F 27.2 °F 35.6 °F 93% 29.96 in 10.0 mi NW 19.6 mph 26.5 mph N/A   Overcast
6:53 AM 37.9 °F 27.6 °F 35.1 °F 89% 29.96 in 10.0 mi NW 20.7 mph 27.6 mph N/A   Overcast
7:53 AM 37.9 °F 27.6 °F 35.1 °F 89% 30.02 in 10.0 mi NNW 20.7 mph 25.3 mph N/A   Overcast
8:53 AM 39.0 °F 28.8 °F 34.0 °F 82% 30.05 in 10.0 mi NW 21.9 mph 27.6 mph N/A   Overcast
9:53 AM 39.9 °F 30.0 °F 34.0 °F 79% 30.09 in 10.0 mi NNW 21.9 mph 27.6 mph N/A   Overcast
10:53 AM 41.0 °F 31.9 °F 34.0 °F 76% 30.11 in 10.0 mi NNW 19.6 mph - N/A   Overcast
11:53 AM 45.0 °F 37.1 °F 34.0 °F 65% 30.10 in 10.0 mi NNW 19.6 mph 25.3 mph N/A   Mostly Cloudy
12:11 PM 44.6 °F 36.9 °F 33.8 °F 66% 30.09 in 10.0 mi NNW 18.4 mph 29.9 mph N/A   Mostly Cloudy
12:21 PM 44.6 °F 36.4 °F 33.8 °F 66% 30.10 in 10.0 mi NW 20.7 mph 27.6 mph N/A   Scattered Clouds
12:53 PM 45.0 °F 36.9 °F 34.0 °F 65% 30.11 in 10.0 mi NW 20.7 mph 27.6 mph N/A   Mostly Cloudy
1:21 PM 44.6 °F 37.2 °F 33.8 °F 66% 30.12 in 10.0 mi NW 17.3 mph 26.5 mph N/A   Mostly Cloudy
1:45 PM 46.4 °F 39.5 °F 33.8 °F 62% 30.12 in 10.0 mi NW 17.3 mph 24.2 mph N/A   Partly Cloudy
1:53 PM 45.0 °F 36.9 °F 30.0 °F 56% 30.13 in 10.0 mi NW 20.7 mph 26.5 mph N/A   Partly Cloudy
2:53 PM 46.0 °F 38.8 °F 28.0 °F 50% 30.16 in 10.0 mi NW 18.4 mph 26.5 mph N/A   Clear
3:53 PM 45.0 °F 37.9 °F 27.0 °F 49% 30.19 in 10.0 mi NW 16.1 mph - N/A   Clear
4:53 PM 39.9 °F 33.9 °F 27.0 °F 60% 30.22 in 10.0 mi NW 9.2 mph - N/A   Clear
5:53 PM 36.0 °F 30.3 °F 26.1 °F 67% 30.24 in 10.0 mi NW 6.9 mph - N/A   Clear
6:53 PM 34.0 °F 28.8 °F 25.0 °F 70% 30.25 in 10.0 mi WNW 5.8 mph - N/A   Clear
7:53 PM 32.0 °F 26.4 °F 25.0 °F 75% 30.26 in 10.0 mi West 5.8 mph - N/A   Clear
8:53 PM 32.0 °F 26.4 °F 25.0 °F 75% 30.27 in 10.0 mi West 5.8 mph - N/A   Clear
9:53 PM 30.0 °F 26.5 °F 25.0 °F 82% 30.29 in 10.0 mi West 3.5 mph - N/A   Clear
10:53 PM 30.0 °F 24.1 °F 25.0 °F 82% 30.29 in 10.0 mi West 5.8 mph - N/A   Clear
11:53 PM 28.9 °F 22.8 °F 25.0 °F 85% 30.30 in 10.0 mi West 5.8 mph - N/A   Clear